Regional Weather Roundup
Issued by NWS

Home | Current Version | Previous Version | Graphics & Text | Print | Product List | Glossary On
Versions: 1 2 3 4 5 6 7 8 9 10 11 12 13 14 15 16 17 18 19 20 21 22 23 24 25 26 27 28 29 30 31 32 33 34 35 36 37 38 39 40 41 42 43 44 45 46 47 48 49 50
022
ASUS43 KOAX 220110
RWRNE

WEATHER ROUNDUP FOR NEBRASKA
NATIONAL WEATHER SERVICE OMAHA NE
700 PM CST TUE NOV 21 2017

NOTES: SATELLITE DATA IS BEING USED TO AUGMENT CLOUD COVER ABOVE
       12000 FEET.
       "FAIR" INDICATES FEW OR NO CLOUDS BELOW 12,000 FEET WITH NO
       SIGNIFICANT WEATHER AND/OR OBSTRUCTIONS TO VISIBILITY.


NEZ001>004-019>022-054>056-220200-
NEBRASKA PANHANDLE

CITY           SKY/WX    TMP DP  RH WIND       PRES   REMARKS
SCOTTSBLUFF    CLEAR     33  22  63 S3        30.26F
ALLIANCE       CLEAR     25  21  85 S8        30.26S WCI  16
CHADRON        CLEAR     28  23  81 CALM      30.26S
GORDON         FAIR      24  20  85 E3        30.26F
KIMBALL        CLOUDY    32  24  72 S5        30.28S WCI  28
SIDNEY         CLEAR     22  16  78 S3        30.29S
$$

NEZ057>060-069>072-079>082-220200-
SOUTHWEST NEBRASKA

CITY           SKY/WX    TMP DP  RH WIND       PRES   REMARKS
NORTH PLATTE   CLOUDY    26  16  65 NE3       30.33S
IMPERIAL       CLOUDY    31  23  72 SE3       30.32S
LEXINGTON      CLOUDY    26  15  61 E6        30.34S WCI  20
MCCOOK         CLOUDY    32  18  56 E3        30.35R
OGALLALA       CLOUDY    31  23  72 CALM      30.31S
$$

NEZ005>010-023>029-035>040-094-220200-
NORTH CENTRAL NEBRASKA

CITY           SKY/WX    TMP DP  RH WIND       PRES   REMARKS
VALENTINE      CLOUDY    24  11  57 CALM      30.34R
AINSWORTH      CLOUDY    21  10  60 NW3       30.34R
BROKEN BOW     CLOUDY    22   9  57 NW6       30.34F WCI  14
O`NEILL        CLOUDY    17  11  79 N3        30.38R
ORD            CLOUDY    17   8  67 W5        30.36S WCI  10
THEDFORD       CLOUDY    27  14  57 CALM      30.33S
$$

NEZ041-046>049-061>064-073>077-083>087-220200-
SOUTH CENTRAL NEBRASKA

CITY           SKY/WX    TMP DP  RH WIND       PRES   REMARKS
GRAND ISLAND   CLOUDY    22  13  68 N6        30.40R WCI  14
AURORA         CLOUDY    22  13  68 N6        30.39S WCI  14
HASTINGS       CLOUDY    24  10  55 N8        30.39R WCI  15
HEBRON         CLOUDY    28  13  54 NW5       30.42R WCI  22
HOLDREGE       CLOUDY    25  12  57 NE7       30.36F WCI  17
KEARNEY        CLOUDY    23  10  57 N10       30.38R WCI  12
YORK           CLOUDY    23  14  68 NW9       30.40R WCI  13
$$

NEZ011>018-030>034-042>045-220200-
NORTHEAST NEBRASKA

CITY           SKY/WX    TMP DP  RH WIND       PRES   REMARKS
NORFOLK        CLOUDY    22  12  65 NW9       30.37R WCI  12
ALBION         CLOUDY    21  12  69 NW3       30.38S
BLAIR          CLEAR     26  13  58 N13       30.36R WCI  15
COLUMBUS       CLOUDY    23  13  65 W6        30.41R WCI  16
FREMONT        CLOUDY    23  12  63 NW6       30.39S WCI  16
TEKAMAH        CLOUDY    24  10  55 NW12      30.38R WCI  13
WAYNE          CLOUDY    20   9  62 NW5       30.38R WCI  13
$$

NEZ050>053-065>068-078-088>093-220200-
SOUTHEAST NEBRASKA

CITY           SKY/WX    TMP DP  RH WIND       PRES   REMARKS
LINCOLN        CLOUDY    27  12  53 N9        30.41R WCI  18
OMAHA EPPLEY   CLEAR     27  11  51 NW15      30.38R WCI  15
BEATRICE       CLOUDY    23  13  67 NW6       30.39R WCI  16
FALLS CITY     CLEAR     27  14  58 NW9       30.37R WCI  18
NEBRASKA CITY  CLEAR     27  14  59 N9        30.37R WCI  18
PLATTSMOUTH    CLEAR     27  13  56 NW13      30.36R WCI  17
$$

NEZ044-045-051>053-067-220200-
OMAHA AREA

CITY           SKY/WX    TMP DP  RH WIND       PRES   REMARKS
OMAHA EPPLEY   CLEAR     27  11  51 NW15      30.38R WCI  15
BLAIR          CLEAR     26  13  58 N13       30.36R WCI  15
FREMONT        CLOUDY    23  12  63 NW6       30.39S WCI  16
MILLARD        CLEAR     29  12  49 NW8       30.39R WCI  21
OFFUTT AFB     CLEAR     28  10  47 NW12      30.37R WCI  17
PLATTSMOUTH    CLEAR     27  13  56 NW13      30.36R WCI  17
WAHOO          FAIR      26  13  59 N9        30.39R WCI  17
$$




USA.gov is the U.S. government's official web portal to all federal, state and local government web resources and services.